+ View the NASA Portal
+ Center for Near-Earth Object Studies
IMPORTANT:
The SSD Announcement email list is now available. Major changes are coming in the near future, including possible hostname and/or URL changes. To be notified of such changes, subscribe to this email list.
Please visit
this page
for more details.
Don't show this message again
JPL Small-Body Database Browser
Search:
[
help
]
48201 (2001 KD3)
Classification:
Main-belt Asteroid
SPK-ID:
2048201
[
Ephemeris
|
Orbit Diagram
|
Orbital Elements
|
Mission Design
|
Physical Parameters
|
Discovery Circumstances
|
Close-Approach Data
]
[ show orbit diagram ]
Orbital Elements at Epoch 2458600.5 (2019-Apr-27.0) TDB
Reference:
JPL 18
(heliocentric ecliptic J2000)
Element
Value
Uncertainty (1-sigma)
Units
e
.03778467521695819
4.0013e-08
a
2.718183846743561
1.679e-08
au
q
2.615478152914374
1.0668e-07
au
i
3.907911906185642
5.7743e-06
deg
node
210.303516137844
6.414e-05
deg
peri
250.3456262076035
0.00010434
deg
M
129.7813733472943
8.0668e-05
deg
t
p
2458010.398752751549
(2017-Sep-13.89875275)
0.00036675
TDB
period
1636.87934200668
4.48
1.5167e-05
4.152e-08
d
yr
n
.2199306880852131
2.0378e-09
deg/d
Q
2.820889540572749
1.7425e-08
au
Orbit Determination Parameters
# obs. used (total)
766
data-arc span
7541 days (20.65 yr)
first obs. used
1998-09-15
last obs. used
2019-05-09
planetary ephem.
DE431
SB-pert. ephem.
SB431-N16
condition code
0
norm. resid. RMS
.5521
source
ORB
producer
Otto Matic
solution date
2019-May-30 04:37:14
Additional Information
Earth MOID
= 1.63567 au
Jupiter MOID
= 2.23567 au
T_jup
= 3.355
[ show covariance matrix ]
[
Ephemeris
|
Orbit Diagram
|
Orbital Elements
|
Mission Design
|
Physical Parameters
|
Discovery Circumstances
|
Close-Approach Data
]
Physical Parameter Table
Parameter
Symbol
Value
Units
Sigma
Reference
Notes
absolute magnitude
H
14.8
n/a
MPO385124
diameter
diameter
3.363
km
1.135
urn:nasa:pds:neowise_diameters_albedos::2.0[mainbelt] (http://adsabs.harvard.edu/abs/2011ApJ...741...68M)
geometric albedo
albedo
0.226
0.141
urn:nasa:pds:neowise_diameters_albedos::2.0[mainbelt] (http://adsabs.harvard.edu/abs/2011ApJ...741...68M)
48201 (2001 KD3)
Discovered 2001-May-17 by LINEAR at Socorro
Reference:
20020921/Numbers.arc
Last Updated:
2004-04-19
[ show close-approach data ]
Alternate Designations
2001 KD3
= 1998 SE107 = 2000 CM11
[
Ephemeris
|
Orbit Diagram
|
Orbital Elements
|
Mission Design
|
Physical Parameters
|
Discovery Circumstances
|
Close-Approach Data
]
2019-Dec-15 11:19 UT
(server date/time)
Site Manager:
Ryan S. Park
Webmaster
:
Alan B. Chamberlin